Weather History for KCMR - October, 2013

Change the Weather History Date:

Monday, October 14, 2013

  Actual Average (KFLG) Record (KFLG)
Temperature  
Mean Temperature 40 °F 47 °F  
Max Temperature 55 °F 63 °F 78 °F (1991)
Min Temperature 26 °F 32 °F 18 °F (1975)
Degree Days  
Heating Degree Days 24 18  
Month to date heating degree days 216  
Since 1 July heating degree days 533  
Cooling Degree Days 0 0  
Month to date cooling degree days 0  
Year to date cooling degree days 117  
Moisture  
Dew Point 23 °F    
Average Humidity 54    
Maximum Humidity 86    
Minimum Humidity 23    
Precipitation  
Precipitation 0.00 in 0.05 in 0.76 in (2006)
Month to date precipitation 0.78  
Year to date precipitation 17.35  
Snow  
Snow 0.00 in 0.00 in 0.50 in (1923)
Month to date snowfall 0.3  
Since 1 July snowfall 0.3  
Snow Depth -    
Sea Level Pressure  
Sea Level Pressure 30.24 in    
Wind  
Wind Speed 6 mph (SSW)    
Max Wind Speed 12 mph    
Max Gust Speed -    
Visibility 10 miles    
Events      
T = Trace of Precipitation, MM = Missing Value Source: NWS Daily Summary

Daily Weather History Graph

Daily Weather History Graph

Search for Another Location

Airport or City:

Trip Planner

Search our weather history database for the weather conditions in past years. The results will help you decide how hot, cold, wet, or windy it might be!

Date:

Astronomy

Oct. 14, 2013 Rise Set
Actual Time 6:34 AM MST 5:54 PM MST
Civil Twilight 6:08 AM MST 6:19 PM MST
Nautical Twilight 5:39 AM MST 6:49 PM MST
Astronomical Twilight 5:09 AM MST 7:18 PM MST
Moon 3:18 PM MST (10/14) 2:04 AM MST (10/14)
Length of Visible Light 12h 11m
Length of Day
11h 20m
Waxing Gibbous, 80% of the Moon is Illuminated
Oct 14
Waxing Gibbous
Oct 18
Full
Oct 26
Last Quarter
Nov 3
New
Nov 9
First Quarter

Hourly Weather History & Observations

Time (MST) Temp. Windchill Dew Point Humidity Pressure Visibility Wind Dir Wind Speed Gust Speed Precip Events Conditions
12:15 AM 39.2 °F 35.0 °F 24.8 °F 56% 30.21 in 10.0 mi SW 5.8 mph - N/A   Clear
12:35 AM 39.2 °F 35.9 °F 24.8 °F 56% 30.21 in 10.0 mi SW 4.6 mph - N/A   Clear
12:55 AM 37.4 °F 33.8 °F 24.8 °F 60% 30.22 in 10.0 mi SSW 4.6 mph - N/A   Clear
1:15 AM 35.6 °F 32.8 °F 24.8 °F 65% 30.22 in 10.0 mi SE 3.5 mph - N/A   Clear
1:35 AM 35.6 °F 32.8 °F 24.8 °F 65% 30.22 in 10.0 mi SSE 3.5 mph - N/A   Clear
1:55 AM 32.0 °F 25.6 °F 24.8 °F 75% 30.22 in 10.0 mi SSE 6.9 mph - N/A   Clear
2:15 AM 32.0 °F 26.4 °F 24.8 °F 75% 30.22 in 10.0 mi South 5.8 mph - N/A   Clear
2:35 AM 32.0 °F 26.4 °F 24.8 °F 75% 30.21 in 10.0 mi SW 5.8 mph - N/A   Clear
2:55 AM 35.6 °F 31.7 °F 23.0 °F 60% 30.21 in 10.0 mi SSW 4.6 mph - N/A   Clear
3:15 AM 30.2 °F 22.6 °F 24.8 °F 80% 30.21 in 10.0 mi SSE 8.1 mph - N/A   Clear
3:35 AM 30.2 °F 23.4 °F 24.8 °F 80% 30.21 in 10.0 mi SSE 6.9 mph - N/A   Clear
3:55 AM 30.2 °F 24.3 °F 24.8 °F 80% 30.22 in 10.0 mi SSE 5.8 mph - N/A   Clear
4:15 AM 28.4 °F 21.2 °F 23.0 °F 80% 30.22 in 10.0 mi SSE 6.9 mph - N/A   Clear
4:35 AM 28.4 °F 24.6 °F 23.0 °F 80% 30.22 in 10.0 mi South 3.5 mph - N/A   Clear
4:55 AM 28.4 °F 20.4 °F 23.0 °F 80% 30.23 in 10.0 mi SSE 8.1 mph - N/A   Clear
5:15 AM 26.6 °F 17.5 °F 23.0 °F 86% 30.23 in 10.0 mi SSE 9.2 mph - N/A   Clear
5:35 AM 26.6 °F 17.5 °F 23.0 °F 86% 30.23 in 10.0 mi SSE 9.2 mph - N/A   Clear
5:55 AM 26.6 °F 18.2 °F 23.0 °F 86% 30.23 in 10.0 mi SSE 8.1 mph - N/A   Clear
6:15 AM 26.6 °F 18.2 °F 23.0 °F 86% 30.24 in 10.0 mi SSE 8.1 mph - N/A   Clear
6:35 AM 26.6 °F 20.0 °F 23.0 °F 86% 30.24 in 10.0 mi SSE 5.8 mph - N/A   Clear
6:55 AM 26.6 °F 18.2 °F 23.0 °F 86% 30.25 in 10.0 mi SSE 8.1 mph - N/A   Clear
7:15 AM 28.4 °F 22.2 °F 23.0 °F 80% 30.25 in 10.0 mi SSE 5.8 mph - N/A   Clear
7:35 AM 32.0 °F 26.4 °F 24.8 °F 75% 30.26 in 10.0 mi SSE 5.8 mph - N/A   Clear
7:55 AM 35.6 °F 32.8 °F 24.8 °F 65% 30.26 in 10.0 mi SSE 3.5 mph - N/A   Clear
8:15 AM 39.2 °F - 26.6 °F 61% 30.27 in 10.0 mi Calm Calm - N/A   Clear
8:35 AM 42.8 °F - 24.8 °F 49% 30.27 in 10.0 mi Calm Calm - N/A   Clear
8:55 AM 44.6 °F - 24.8 °F 46% 30.27 in 10.0 mi Calm Calm - N/A   Clear
9:15 AM 46.4 °F 45.2 °F 26.6 °F 46% 30.28 in 10.0 mi NNW 3.5 mph - N/A   Clear
9:35 AM 46.4 °F 42.9 °F 24.8 °F 43% 30.28 in 10.0 mi NW 6.9 mph - N/A   Clear
9:55 AM 48.2 °F - 24.8 °F 40% 30.28 in 10.0 mi NW 4.6 mph - N/A   Clear
10:15 AM 48.2 °F - 19.4 °F 32% 30.28 in 10.0 mi NW 8.1 mph - N/A   Clear
10:35 AM 50.0 °F - 21.2 °F 32% 30.28 in 10.0 mi NW 6.9 mph - N/A   Clear
10:55 AM 50.0 °F - 21.2 °F 32% 30.27 in 10.0 mi NNW 8.1 mph - N/A   Clear
11:15 AM 50.0 °F - 19.4 °F 30% 30.27 in 10.0 mi North 6.9 mph - N/A   Clear
11:35 AM 51.8 °F - 21.2 °F 30% 30.27 in 10.0 mi NW 6.9 mph - N/A   Clear
11:55 AM 53.6 °F - 21.2 °F 28% 30.27 in 10.0 mi NW 8.1 mph - N/A   Clear
12:15 PM 53.6 °F - 21.2 °F 28% 30.26 in 10.0 mi North 8.1 mph - N/A   Clear
12:35 PM 53.6 °F - 23.0 °F 30% 30.25 in 10.0 mi NNW 5.8 mph - N/A   Clear
12:55 PM 53.6 °F - 19.4 °F 26% 30.25 in 10.0 mi Calm Calm - N/A   Clear
1:15 PM 55.4 °F - 23.0 °F 29% 30.24 in 10.0 mi North 8.1 mph - N/A   Unknown
1:35 PM 55.4 °F - 19.4 °F 25% 30.24 in 10.0 mi WNW 6.9 mph - N/A   Clear
1:55 PM 55.4 °F - 21.2 °F 26% 30.24 in 10.0 mi NW 8.1 mph - N/A   Clear
2:15 PM 55.4 °F - 19.4 °F 25% 30.23 in 10.0 mi North 4.6 mph - N/A   Clear
2:35 PM 55.4 °F - 19.4 °F 25% 30.23 in 10.0 mi Calm Calm - N/A   Clear
2:55 PM 55.4 °F - 17.6 °F 23% 30.23 in 10.0 mi West 6.9 mph - N/A   Clear
3:15 PM 55.4 °F - 17.6 °F 23% 30.23 in 10.0 mi West 5.8 mph - N/A   Clear
3:35 PM 55.4 °F - 19.4 °F 25% 30.23 in 10.0 mi WNW 4.6 mph - N/A   Clear
3:55 PM 55.4 °F - 17.6 °F 23% 30.22 in 10.0 mi West 8.1 mph - N/A   Clear
4:15 PM 55.4 °F - 19.4 °F 25% 30.22 in 10.0 mi NW 5.8 mph - N/A   Clear
4:35 PM 55.4 °F - 19.4 °F 25% 30.22 in 10.0 mi WNW 8.1 mph - N/A   Clear
4:55 PM 53.6 °F - 19.4 °F 26% 30.22 in 10.0 mi NW 5.8 mph - N/A   Clear
5:15 PM 53.6 °F - 21.2 °F 28% 30.22 in 10.0 mi NNW 4.6 mph - N/A   Clear
5:35 PM 50.0 °F - 23.0 °F 35% 30.23 in 10.0 mi North 4.6 mph - N/A   Clear
5:55 PM 48.2 °F - 23.0 °F 37% 30.23 in 10.0 mi North 6.9 mph - N/A   Clear
6:15 PM 46.4 °F 44.3 °F 23.0 °F 40% 30.23 in 10.0 mi North 4.6 mph - N/A   Clear
6:35 PM 46.4 °F 45.2 °F 23.0 °F 40% 30.23 in 10.0 mi North 3.5 mph - N/A   Clear
6:55 PM 41.0 °F 38.0 °F 24.8 °F 53% 30.23 in 10.0 mi SSE 4.6 mph - N/A   Clear
7:15 PM 42.8 °F - 21.2 °F 42% 30.24 in 10.0 mi Calm Calm - N/A   Clear
7:35 PM 39.2 °F 35.9 °F 23.0 °F 52% 30.24 in 10.0 mi SSE 4.6 mph - N/A   Clear
7:55 PM 37.4 °F 32.1 °F 24.8 °F 60% 30.24 in 10.0 mi SSE 6.9 mph - N/A   Clear
8:15 PM 35.6 °F 30.7 °F 24.8 °F 65% 30.25 in 10.0 mi SSE 5.8 mph - N/A   Clear
8:35 PM 35.6 °F 29.9 °F 24.8 °F 65% 30.25 in 10.0 mi SSE 6.9 mph - N/A   Clear
8:55 PM 35.6 °F - 24.8 °F 65% 30.25 in 10.0 mi Calm Calm - N/A   Clear
9:15 PM 32.0 °F 23.0 °F 24.8 °F 75% 30.25 in 10.0 mi SSE 11.5 mph - N/A   Clear
9:35 PM 33.8 °F 30.8 °F 23.0 °F 65% 30.25 in 10.0 mi SSE 3.5 mph - N/A   Clear
9:55 PM 32.0 °F 26.4 °F 23.0 °F 69% 30.25 in 10.0 mi SSE 5.8 mph - N/A   Clear
10:15 PM 32.0 °F 24.8 °F 23.0 °F 69% 30.25 in 10.0 mi SSE 8.1 mph - N/A   Clear
10:35 PM 32.0 °F 25.6 °F 23.0 °F 69% 30.25 in 10.0 mi SSE 6.9 mph - N/A   Clear
10:55 PM 30.2 °F 23.4 °F 23.0 °F 75% 30.24 in 10.0 mi SSE 6.9 mph - N/A   Clear
11:15 PM 30.2 °F 23.4 °F 23.0 °F 75% 30.24 in 10.0 mi SSE 6.9 mph - N/A   Clear
11:35 PM 28.4 °F 20.4 °F 23.0 °F 80% 30.24 in 10.0 mi SSE 8.1 mph - N/A   Clear
11:55 PM 28.4 °F 20.4 °F 23.0 °F 80% 30.23 in 10.0 mi SSE 8.1 mph - N/A   Unknown